Staples, MN

7:33 PM CDT on April 25, 2017 (GMT -0500)
Staples Municipal

Weather History for KSAZ - October, 2013

Change the Weather History Date:

Wednesday, October 2, 2013

  Actual Average Record
Temperature  
Mean Temperature 52 °F -  
Max Temperature 69 °F 58 °F 82 °F (1997)
Min Temperature 35 °F 37 °F 19 °F (2003)
Degree Days  
Heating Degree Days 13    
Growing Degree Days 2 (Base 50)    
Moisture  
Dew Point 43 °F    
Average Humidity 78    
Maximum Humidity 100    
Minimum Humidity 31    
Precipitation  
Precipitation 0.68 in - - ()
Sea Level Pressure  
Sea Level Pressure 29.98 in    
Wind  
Wind Speed 3 mph (ESE)    
Max Wind Speed 9 mph    
Max Gust Speed -    
Visibility 10 miles    
Events Rain , Thunderstorm    
Averages and records for this station are not official NWS values.
T = Trace of Precipitation, MM = Missing Value Source: NWS Daily Summary

Daily Weather History Graph

Daily Weather History Graph

Search for Another Location

Airport or City:

Trip Planner

Search our weather history database for the weather conditions in past years. The results will help you decide how hot, cold, wet, or windy it might be!

Date:

Astronomy

Oct. 02, 2013 Rise Set
Actual Time 7:19 AM CDT 6:56 PM CDT
Civil Twilight 6:49 AM CDT 7:26 PM CDT
Nautical Twilight 6:14 AM CDT 8:01 PM CDT
Astronomical Twilight 5:39 AM CDT 8:36 PM CDT
Moon 4:46 AM CDT (10/2) 5:37 PM CDT (10/2)
Length of Visible Light 12h 37m
Length of Day
11h 37m
Waning Crescent, 6% of the Moon is Illuminated
Oct 2
Waning Crescent
Oct 4
New
Oct 11
First Quarter
Oct 18
Full
Oct 26
Last Quarter

Hourly Weather History & Observations

Time (CDT) Temp. Windchill Dew Point Humidity Pressure Visibility Wind Dir Wind Speed Gust Speed Precip Events Conditions
12:13 AM 48.2 °F - 37.4 °F 66% 29.97 in 10.0 mi WSW 4.6 mph - N/A   Clear
12:33 AM 48.2 °F - 37.4 °F 66% 29.98 in 10.0 mi SSW 5.8 mph - N/A   Clear
12:54 AM 48.2 °F - 37.4 °F 66% 29.99 in 10.0 mi WSW 4.6 mph - N/A   Clear
1:13 AM 48.2 °F - 37.4 °F 66% 29.99 in 10.0 mi WSW 3.5 mph - N/A   Clear
1:33 AM 48.2 °F - 37.4 °F 66% 29.99 in 10.0 mi Calm Calm - N/A   Clear
1:54 AM 44.6 °F 43.1 °F 37.4 °F 76% 30.00 in 10.0 mi SSW 3.5 mph - N/A   Clear
2:13 AM 46.4 °F - 37.4 °F 71% 30.00 in 10.0 mi Calm Calm - N/A   Clear
2:33 AM 46.4 °F - 37.4 °F 71% 30.00 in 10.0 mi Calm Calm - N/A   Clear
2:54 AM 44.6 °F - 37.4 °F 76% 29.99 in 10.0 mi Calm Calm - N/A   Clear
3:13 AM 42.8 °F - 37.4 °F 81% 29.99 in 10.0 mi Calm Calm - N/A   Clear
3:33 AM 41.0 °F - 37.4 °F 87% 30.00 in 10.0 mi Calm Calm - N/A   Clear
3:54 AM 41.0 °F - 37.4 °F 87% 29.99 in 10.0 mi Calm Calm - N/A   Clear
4:13 AM 37.4 °F - 35.6 °F 93% 30.00 in 10.0 mi Calm Calm - N/A   Clear
4:33 AM 39.2 °F - 37.4 °F 93% 29.99 in 10.0 mi Calm Calm - N/A   Clear
4:53 AM 39.2 °F - 35.6 °F 87% 30.00 in 10.0 mi Calm Calm - N/A   Clear
5:13 AM 37.4 °F - 35.6 °F 93% 30.00 in 10.0 mi Calm Calm - N/A   Clear
5:33 AM 37.4 °F - 35.6 °F 93% 30.00 in 10.0 mi Calm Calm - N/A   Clear
5:54 AM 37.4 °F - 37.4 °F 100% 30.00 in 10.0 mi Calm Calm - N/A   Clear
6:13 AM 37.4 °F - 35.6 °F 93% 30.00 in 10.0 mi Calm Calm - N/A   Clear
6:33 AM 37.4 °F - 37.4 °F 100% 29.98 in 10.0 mi Calm Calm - N/A   Clear
6:54 AM 35.6 °F - 35.6 °F 100% 29.99 in 10.0 mi Calm Calm - N/A   Clear
7:13 AM 37.4 °F 34.9 °F 35.6 °F 93% 30.00 in 10.0 mi South 3.5 mph - N/A   Clear
7:33 AM 37.4 °F 34.9 °F 37.4 °F 100% 29.99 in 10.0 mi SSE 3.5 mph - N/A   Clear
7:54 AM 41.0 °F 39.0 °F 39.2 °F 93% 29.99 in 10.0 mi South 3.5 mph - N/A   Clear
8:13 AM 42.8 °F 41.1 °F 39.2 °F 87% 29.99 in 10.0 mi South 3.5 mph - N/A   Scattered Clouds
8:33 AM 44.6 °F 42.2 °F 39.2 °F 81% 30.00 in 10.0 mi South 4.6 mph - N/A   Scattered Clouds
8:54 AM 46.4 °F - 41.0 °F 81% 30.01 in 10.0 mi Calm Calm - N/A   Scattered Clouds
9:13 AM 48.2 °F - 42.8 °F 82% 30.00 in 10.0 mi SSE 3.5 mph - N/A   Clear
9:33 AM 50.0 °F - 42.8 °F 76% 30.01 in 10.0 mi South 5.8 mph - N/A   Clear
9:53 AM 53.6 °F - 42.8 °F 67% 30.01 in 10.0 mi SSE 3.5 mph - N/A   Clear
10:13 AM 57.2 °F - 42.8 °F 59% 30.01 in 10.0 mi South 5.8 mph - N/A   Clear
10:33 AM 57.2 °F - 42.8 °F 59% 30.01 in 10.0 mi SSE 3.5 mph - N/A   Clear
10:53 AM 59.0 °F - 39.2 °F 48% 30.01 in 10.0 mi SSE 5.8 mph - N/A   Clear
11:13 AM 60.8 °F - 42.8 °F 52% 30.01 in 10.0 mi South 8.1 mph - N/A   Clear
11:33 AM 62.6 °F - 41.0 °F 45% 30.01 in 10.0 mi SSE 4.6 mph - N/A   Clear
11:53 AM 64.4 °F - 39.2 °F 40% 30.01 in 10.0 mi SSE 6.9 mph - N/A   Clear
12:13 PM 64.4 °F - 42.8 °F 45% 30.00 in 10.0 mi SE 5.8 mph - N/A   Clear
12:33 PM 66.2 °F - 41.0 °F 40% 30.00 in 10.0 mi SSE 6.9 mph - N/A   Clear
12:53 PM 66.2 °F - 37.4 °F 35% 29.98 in 10.0 mi SSE 8.1 mph - N/A   Scattered Clouds
1:13 PM 68.0 °F - 37.4 °F 33% 29.97 in 10.0 mi SE 6.9 mph - N/A   Mostly Cloudy
1:33 PM 69.8 °F - 37.4 °F 31% 29.94 in 10.0 mi ESE 8.1 mph - N/A   Scattered Clouds
1:53 PM 66.2 °F - 35.6 °F 32% 29.94 in 10.0 mi ESE 8.1 mph - N/A   Mostly Cloudy
2:13 PM 64.4 °F - 39.2 °F 40% 29.95 in 10.0 mi Calm Calm - N/A Rain Light Rain
2:33 PM 62.6 °F - 44.6 °F 52% 29.98 in 10.0 mi South 4.6 mph - N/A   Drizzle
2:53 PM 55.4 °F - 50.0 °F 82% 30.00 in 4.0 mi SSE 4.6 mph - 0.05 in Rain Rain
3:13 PM 55.4 °F - 50.0 °F 82% 29.98 in 10.0 mi NNE 4.6 mph - 0.03 in Rain , Thunderstorm Thunderstorms and Rain
3:34 PM 53.6 °F - 50.0 °F 88% 30.00 in 10.0 mi Calm Calm - 0.08 in Rain Light Rain
3:53 PM 53.6 °F - 51.8 °F 94% 29.96 in 5.0 mi East 4.6 mph - 0.16 in Rain , Thunderstorm Heavy Thunderstorms and Rain
4:13 PM 53.6 °F - 50.0 °F 88% 29.96 in 10.0 mi ENE 3.5 mph - 0.06 in Rain , Thunderstorm Rain
4:33 PM 53.6 °F - 50.0 °F 88% 29.97 in 7.0 mi NE 3.5 mph - 0.09 in Rain Rain
4:53 PM 51.8 °F - 50.0 °F 94% 29.98 in 7.0 mi Calm Calm - 0.15 in Rain Rain
5:13 PM 51.8 °F - 50.0 °F 94% 29.99 in 7.0 mi North 5.8 mph - 0.09 in Rain Heavy Rain
5:33 PM 51.8 °F - 50.0 °F 94% 29.99 in 3.0 mi NNE 4.6 mph - 0.24 in Rain Heavy Rain
5:53 PM 51.8 °F - 50.0 °F 94% 29.99 in 7.0 mi NE 4.6 mph - 0.30 in Rain Rain
6:13 PM 51.8 °F - 50.0 °F 94% 29.99 in 10.0 mi NE 5.8 mph - 0.01 in Rain Light Rain
6:33 PM 51.8 °F - 50.0 °F 94% 29.96 in 10.0 mi NE 6.9 mph - 0.01 in   Drizzle
6:53 PM 51.8 °F - 50.0 °F 94% 29.95 in 10.0 mi ENE 5.8 mph - 0.01 in   Overcast
7:13 PM 51.8 °F - 50.0 °F 94% 29.95 in 10.0 mi NE 5.8 mph - N/A   Overcast
7:33 PM 51.8 °F - 50.0 °F 94% 29.94 in 10.0 mi NE 9.2 mph - N/A Rain Light Rain
7:54 PM 51.8 °F - 48.2 °F 88% 29.95 in 10.0 mi NE 5.8 mph - 0.01 in   Light Drizzle
8:13 PM 51.8 °F - 48.2 °F 88% 29.95 in 10.0 mi ENE 4.6 mph - N/A   Overcast
8:33 PM 51.8 °F - 48.2 °F 88% 29.94 in 10.0 mi ENE 8.1 mph - N/A   Overcast
8:54 PM 51.8 °F - 48.2 °F 88% 29.94 in 10.0 mi ENE 5.8 mph - N/A   Overcast
9:13 PM 51.8 °F - 48.2 °F 88% 29.94 in 10.0 mi ENE 5.8 mph - N/A   Overcast
9:33 PM 51.8 °F - 48.2 °F 88% 29.94 in 10.0 mi ENE 4.6 mph - N/A   Overcast
9:54 PM 51.8 °F - 48.2 °F 88% 29.94 in 10.0 mi ENE 4.6 mph - N/A   Overcast
10:13 PM 51.8 °F - 48.2 °F 88% 29.95 in 10.0 mi NE 4.6 mph - N/A   Overcast
10:33 PM 51.8 °F - 48.2 °F 88% 29.94 in 10.0 mi NE 3.5 mph - N/A   Overcast
10:54 PM 51.8 °F - 48.2 °F 88% 29.95 in 10.0 mi ENE 3.5 mph - N/A   Overcast
11:13 PM 51.8 °F - 48.2 °F 88% 29.95 in 10.0 mi NE 3.5 mph - N/A   Mostly Cloudy
11:33 PM 50.0 °F - 48.2 °F 94% 29.95 in 10.0 mi Calm Calm - N/A   Clear
11:53 PM 48.2 °F - 46.4 °F 93% 29.95 in 10.0 mi North 3.5 mph - N/A   Clear